This demonstration page uses our WeatherBlox Daily Observations layout. Learn more.

Left ArrowRight Arrow

39.12711, -84.51439

Hourly Observations for January 23, 2018

Temp ( °F °C ) Dew Point ( °F °C ) Humidity (%) Winds ( mph kmh ) Pressure ( in mb ) Visibility ( mi km ) Precip ( " mm )
12:53 am 00:53 Partly Cloudy 48 8.9 34 1.1 58 58 WSW 13 20 29.66 1004 10 16 N/A
1:53 am 01:53 Clear 44 6.7 33 0.6 65 65 SW 8 13 29.65 1004 10 16 N/A
2:53 am 02:53 Partly Cloudy 45 7.2 33 0.6 63 63 SSW 10 17 29.66 1004 10 16 N/A
3:53 am 03:53 Cloudy 45 7.2 33 0.6 63 63 SSW 18 30 29.65 1004 10 16 N/A
4:53 am 04:53 Cloudy 45 7.2 31 -0.6 58 58 SW 16 26 29.66 1005 10 16 N/A
5:53 am 05:53 Cloudy 43 6.1 33 0.6 68 68 WSW 26 43 29.72 1006 10 16 N/A
6:53 am 06:53 Cloudy 41 5 31 -0.6 67 67 WSW 15 24 29.74 1007 10 16 N/A
7:53 am 07:53 Cloudy 41 5 30 -1.1 65 65 SW 12 19 29.75 1008 10 16 N/A
8:53 am 08:53 Cloudy with Light Rain 38 3.3 33 0.6 83 83 WSW 23 37 29.80 1009 10 16 N/A
9:53 am 09:53 Cloudy 39 3.9 33 0.6 79 79 WSW 14 22 29.83 1010 10 16 N/A
10:53 am 10:53 Cloudy 40 4.4 33 0.6 77 77 WSW 22 35 29.87 1011 10 16 N/A
11:53 am 11:53 Cloudy 41 5 33 0.6 73 73 WSW 16 26 29.88 1012 10 16 N/A
12:53 pm 12:53 Cloudy 41 5 32 undefined 70 70 SW 17 28 29.88 1012 10 16 N/A
1:53 pm 13:53 Cloudy 41 5 32 undefined 70 70 WSW 20 31 29.90 1013 10 16 N/A
2:53 pm 14:53 Cloudy 40 4.4 33 0.6 77 77 WSW 18 30 29.92 1013 10 16 N/A
3:53 pm 15:53 Cloudy 40 4.4 33 0.6 77 77 WSW 15 24 29.95 1014 10 16 N/A
4:53 pm 16:53 Cloudy 40 4.4 33 0.6 77 77 WSW 15 24 29.99 1016 10 16 N/A
5:53 pm 17:53 Cloudy 40 4.4 32 undefined 73 73 SW 10 17 30.02 1017 10 16 N/A
6:53 pm 18:53 Cloudy 39 3.9 32 undefined 76 76 WSW 16 26 30.05 1018 10 16 N/A
7:53 pm 19:53 Cloudy 39 3.9 32 undefined 76 76 W 15 24 30.07 1018 10 16 N/A
8:53 pm 20:53 Cloudy 37 2.8 32 undefined 82 82 W 12 19 30.10 1019 10 16 N/A
9:38 pm 21:38 Cloudy 36 2.2 31 -0.6 82 82 W 9 15 30.09 1019 10 16 N/A
9:53 pm 21:53 Cloudy 36 2.2 31 -0.6 82 82 W 10 17 30.12 1020 10 16 N/A
10:53 pm 22:53 Cloudy with Light Rain 35 1.7 31 -0.6 85 85 WNW 10 17 30.14 1021 7 11 N/A
11:53 pm 23:53 Cloudy with Light Wintry Mix 34 1.1 30 -1.1 85 85 W 14 22 30.16 1021 8 13 0.01 0.25

Powered by AerisWeather